Louisville Bowman, KY

4:14 PM EST on December 08, 2019 (GMT -0500)
Bowman

Weather History for KLOU - October, 2019

Change the Weather History Date:

Monday, October 21, 2019

  Actual Average Record
Temperature  
Mean Temperature 66 °F 57 °F  
Max Temperature 75 °F 67 °F 88 °F (1953)
Min Temperature 57 °F 46 °F 24 °F (1952)
Degree Days  
Heating Degree Days 0 9  
Month to date heating degree days 113 137  
Since 1 July heating degree days 113 173  
Cooling Degree Days 1 1  
Month to date cooling degree days 70 28  
Year to date cooling degree days 1794 1441  
Growing Degree Days 16 (Base 50)    
Moisture  
Dew Point 57 °F    
Average Humidity 76    
Maximum Humidity 86    
Minimum Humidity 59    
Precipitation  
Precipitation 0.02 in 0.10 in 0.41 in (1988)
Month to date precipitation 2.47 2.21  
Year to date precipitation 45.47 36.91  
Sea Level Pressure  
Sea Level Pressure 29.78 in    
Wind  
Wind Speed 9 mph ()    
Max Wind Speed 28 mph    
Max Gust Speed 40 mph    
Visibility 10.0 miles    
Events Rain    
T = Trace of Precipitation, MM = Missing Value Source: Averaged Metar Reports

Daily Weather History Graph

Daily Weather History Graph

Search for Another Location

Airport or City:

Astronomy

Oct. 21, 2019 Rise Set
Actual Time 7:57 AM EDT 6:56 PM EDT
Civil Twilight 7:30 AM EDT 7:23 PM EDT
Nautical Twilight 6:59 AM EDT 7:54 PM EDT
Astronomical Twilight 6:28 AM EDT 8:24 PM EDT
Moon 12:09 AM EDT (10/21) 3:11 PM EDT (10/21)
Length of Visible Light 11h 53m
Length of Day
10h 59m
Waning Gibbous, 48% of the Moon is Illuminated
Oct 21
Waning Gibbous
Oct 27
New
Nov 4
First Quarter
Nov 12
Full
Nov 19
Last Quarter

Hourly Weather History & Observations

Time (EDT) Temp. Dew Point Humidity Pressure Visibility Wind Dir Wind Speed Gust Speed Precip Events Conditions
12:53 AM 61.0 °F 54.0 °F 78% 29.92 in 10.0 mi SE 5.8 mph - N/A   Clear
1:53 AM 59.0 °F 54.0 °F 83% 29.89 in 10.0 mi SE 6.9 mph - N/A   Clear
2:53 AM 59.0 °F 54.0 °F 83% 29.86 in 10.0 mi SE 8.1 mph - N/A   Clear
3:53 AM 57.9 °F 53.1 °F 84% 29.85 in 10.0 mi SSE 6.9 mph - N/A   Clear
4:53 AM 59.0 °F 54.0 °F 83% 29.84 in 10.0 mi SSE 5.8 mph - N/A   Clear
5:53 AM 59.0 °F 54.0 °F 83% 29.83 in 10.0 mi ESE 6.9 mph - N/A   Clear
6:53 AM 59.0 °F 54.0 °F 83% 29.82 in 10.0 mi SE 9.2 mph - N/A   Clear
7:53 AM 60.1 °F 55.0 °F 83% 29.81 in 10.0 mi SE 8.1 mph - N/A   Clear
8:53 AM 62.1 °F 55.9 °F 80% 29.76 in 10.0 mi SE 16.1 mph 26.5 mph N/A   Overcast
9:53 AM 64.9 °F 55.9 °F 73% 29.75 in 10.0 mi SSE 17.3 mph 28.8 mph N/A   Overcast
10:53 AM 68.0 °F 57.0 °F 68% 29.75 in 10.0 mi SSE 12.7 mph 25.3 mph N/A   Mostly Cloudy
11:53 AM 70.0 °F 57.9 °F 65% 29.78 in 10.0 mi SSW 13.8 mph - N/A   Overcast
12:53 PM 73.0 °F 59.0 °F 61% 29.74 in 10.0 mi South 20.7 mph 31.1 mph N/A   Scattered Clouds
1:53 PM 73.9 °F 59.0 °F 59% 29.71 in 10.0 mi South 15.0 mph 23.0 mph N/A   Mostly Cloudy
2:53 PM 73.9 °F 59.0 °F 59% 29.72 in 10.0 mi South 13.8 mph 24.2 mph 0.00 in   Overcast
3:53 PM 72.0 °F 59.0 °F 64% 29.72 in 10.0 mi South 18.4 mph 32.2 mph 0.00 in   Overcast
4:53 PM 70.0 °F 59.0 °F 68% 29.73 in 10.0 mi South 15.0 mph 23.0 mph 0.00 in   Overcast
5:53 PM 68.0 °F 59.0 °F 73% 29.72 in 10.0 mi South 11.5 mph - 0.00 in Rain Light Rain
6:53 PM 66.0 °F 60.1 °F 81% 29.73 in 10.0 mi SSE 9.2 mph - 0.02 in Rain Light Rain
7:53 PM 66.0 °F 57.9 °F 75% 29.76 in 10.0 mi South 16.1 mph 23.0 mph 0.00 in   Overcast
8:53 PM 64.0 °F 57.0 °F 78% 29.76 in 10.0 mi South 12.7 mph - N/A   Mostly Cloudy
9:53 PM 63.0 °F 57.0 °F 81% 29.76 in 10.0 mi South 15.0 mph 21.9 mph N/A   Clear
10:53 PM 63.0 °F 57.0 °F 81% 29.78 in 10.0 mi South 10.4 mph - N/A   Partly Cloudy
11:27 PM 63.0 °F 57.0 °F 81% 29.81 in 10.0 mi SSW 9.2 mph - N/A   Mostly Cloudy
11:53 PM 63.0 °F 57.0 °F 81% 29.80 in 10.0 mi SW 9.2 mph - N/A   Mostly Cloudy